EWG69L EDDK-LPPT

Flight info

Callsign EWG69L
Flight time N/A
Altitude 37000
Route NVO2D NVO Y868 NAVAK Z283 LNO DCT RASCA DCT FAMEN DCT ESTOC UT300 PON UN872 ERIGA DCT FUJTI DCT PEPET DCT BAKUP DCT BATAX DCT INBOM
Aircraft A320/M-SDE3FGHIRWY/LB1

Departure

Time 2026-04-25 12:24
Airport Cologne Bonn Airport (EDDK)

Arrival

Time N/A
Airport Lisbon Humberto Delgado Airport (LPPT)
Time Latitude Longitude Altitude Speed Heading
2026-04-25 11:54 50.87803 7.12419 232 ft 0 kts 288°
2026-04-25 12:11 50.87799 7.12438 232 ft 4 kts 288°
2026-04-25 12:11 50.87791 7.12479 233 ft 4 kts 288°
2026-04-25 12:11 50.87782 7.12517 232 ft 4 kts 306°
2026-04-25 12:11 50.87763 7.12541 236 ft 4 kts 354°
2026-04-25 12:12 50.87743 7.12538 236 ft 4 kts 18°
2026-04-25 12:12 50.87726 7.12529 234 ft 4 kts 18°
2026-04-25 12:12 50.87712 7.12522 232 ft 0 kts 18°
2026-04-25 12:17 50.87713 7.12522 232 ft 1 kts 18°
2026-04-25 12:17 50.87744 7.12539 236 ft 5 kts 24°
2026-04-25 12:17 50.87767 7.12607 232 ft 8 kts 72°
2026-04-25 12:18 50.87768 7.12688 232 ft 7 kts 105°
2026-04-25 12:18 50.87740 7.12748 232 ft 13 kts 155°
2026-04-25 12:18 50.87675 7.12834 232 ft 14 kts 137°
2026-04-25 12:18 50.87581 7.12969 232 ft 22 kts 137°
2026-04-25 12:19 50.87413 7.13215 232 ft 18 kts 137°
2026-04-25 12:19 50.87274 7.13416 233 ft 17 kts 137°
2026-04-25 12:19 50.87179 7.13554 237 ft 18 kts 137°
2026-04-25 12:20 50.87094 7.13678 240 ft 15 kts 137°
2026-04-25 12:20 50.87028 7.13772 242 ft 12 kts 137°
2026-04-25 12:20 50.86973 7.13852 245 ft 22 kts 137°
2026-04-25 12:20 50.86823 7.14068 255 ft 19 kts 137°
2026-04-25 12:21 50.86735 7.14143 256 ft 10 kts 155°
2026-04-25 12:21 50.86687 7.14204 259 ft 19 kts 138°
2026-04-25 12:21 50.86499 7.14474 266 ft 33 kts 137°
2026-04-25 12:21 50.86372 7.14660 274 ft 22 kts 137°
2026-04-25 12:22 50.86265 7.14816 280 ft 21 kts 137°
2026-04-25 12:22 50.86149 7.14983 286 ft 19 kts 137°
2026-04-25 12:22 50.86077 7.15088 288 ft 12 kts 135°
2026-04-25 12:22 50.86045 7.15223 292 ft 20 kts 86°
2026-04-25 12:23 50.86142 7.15356 290 ft 18 kts 359°
2026-04-25 12:23 50.86273 7.15319 289 ft 20 kts 347°
2026-04-25 12:23 50.86423 7.15247 283 ft 28 kts 326°
2026-04-25 12:23 50.86720 7.14829 269 ft 92 kts 317°
2026-04-25 12:24 50.87340 7.13928 242 ft 147 kts 317°
2026-04-25 12:24 50.88163 7.12734 576 ft 167 kts 315°
2026-04-25 12:24 50.89026 7.11473 1287 ft 170 kts 315°
2026-04-25 12:24 50.89885 7.10177 2049 ft 171 kts 315°
2026-04-25 12:25 50.90738 7.08848 2666 ft 177 kts 311°
2026-04-25 12:25 50.91274 7.07014 3111 ft 194 kts 280°
2026-04-25 12:25 50.91085 7.04788 3439 ft 217 kts 254°
2026-04-25 12:25 50.90579 7.02392 3792 ft 242 kts 253°
2026-04-25 12:26 50.90026 6.99801 4359 ft 258 kts 253°
2026-04-25 12:26 50.89432 6.97034 4852 ft 264 kts 253°
2026-04-25 12:26 50.88846 6.94319 4959 ft 263 kts 253°
2026-04-25 12:26 50.88255 6.91589 4981 ft 263 kts 253°
2026-04-25 12:27 50.87661 6.88825 5589 ft 266 kts 253°
2026-04-25 12:27 50.87069 6.86052 6556 ft 267 kts 253°
2026-04-25 12:27 50.86471 6.83250 7414 ft 270 kts 253°
2026-04-25 12:27 50.85867 6.80416 8249 ft 274 kts 253°
2026-04-25 12:28 50.85252 6.77543 9087 ft 277 kts 253°
2026-04-25 12:28 50.84628 6.74634 9933 ft 281 kts 253°
2026-04-25 12:28 50.83991 6.71670 10551 ft 292 kts 253°
2026-04-25 12:28 50.83310 6.68498 10785 ft 316 kts 253°
2026-04-25 12:29 50.82634 6.65068 10973 ft 338 kts 259°
2026-04-25 12:29 50.82321 6.61318 11377 ft 349 kts 270°
2026-04-25 12:29 50.82363 6.57461 12020 ft 353 kts 273°
2026-04-25 12:29 50.82383 6.53565 12705 ft 357 kts 268°
2026-04-25 12:30 50.81816 6.49717 13391 ft 365 kts 250°
2026-04-25 12:30 50.80776 6.46030 14076 ft 369 kts 248°
2026-04-25 12:30 50.79702 6.42330 14690 ft 372 kts 248°
2026-04-25 12:30 50.78609 6.38603 15286 ft 375 kts 248°
2026-04-25 12:31 50.77505 6.34842 15889 ft 379 kts 247°
2026-04-25 12:31 50.76391 6.31052 16486 ft 382 kts 247°
2026-04-25 12:31 50.75266 6.27231 17059 ft 385 kts 247°
2026-04-25 12:31 50.74131 6.23384 17628 ft 389 kts 247°
2026-04-25 12:32 50.72984 6.19499 18176 ft 392 kts 247°
2026-04-25 12:32 50.71828 6.15588 18703 ft 395 kts 247°
2026-04-25 12:32 50.70664 6.11643 19156 ft 398 kts 247°
2026-04-25 12:32 50.69491 6.07666 19623 ft 401 kts 247°
2026-04-25 12:33 50.68311 6.03666 20096 ft 404 kts 247°
2026-04-25 12:33 50.67119 5.99632 20575 ft 407 kts 247°
2026-04-25 12:33 50.65922 5.95584 21055 ft 409 kts 248°
2026-04-25 12:33 50.64712 5.91509 21525 ft 411 kts 248°
2026-04-25 12:34 50.63494 5.87417 21976 ft 414 kts 248°
2026-04-25 12:34 50.62268 5.83312 22449 ft 416 kts 248°
2026-04-25 12:34 50.61449 5.80577 22751 ft 417 kts 248°
2026-04-25 12:34 50.60627 5.77832 23052 ft 419 kts 248°
2026-04-25 12:35 50.58399 5.70960 23774 ft 426 kts 240°
2026-04-25 12:35 50.57243 5.68440 24001 ft 430 kts 234°
2026-04-25 12:35 50.54687 5.63561 24464 ft 433 kts 234°
2026-04-25 12:35 50.52763 5.59900 24821 ft 435 kts 234°
2026-04-25 12:36 50.51485 5.57474 25048 ft 437 kts 234°
2026-04-25 12:36 50.48885 5.52537 25509 ft 439 kts 235°
2026-04-25 12:36 50.47595 5.50091 25738 ft 440 kts 234°
2026-04-25 12:36 50.45638 5.46380 26080 ft 442 kts 234°
2026-04-25 12:37 50.43009 5.41399 26533 ft 444 kts 234°
2026-04-25 12:37 50.41036 5.37662 26859 ft 446 kts 234°
2026-04-25 12:37 50.39724 5.35179 27079 ft 447 kts 234°
2026-04-25 12:37 50.37737 5.31424 27374 ft 449 kts 234°
2026-04-25 12:38 50.35740 5.27655 27684 ft 450 kts 234°
2026-04-25 12:38 50.33733 5.23873 27985 ft 452 kts 234°
2026-04-25 12:38 50.31721 5.20089 28285 ft 454 kts 234°
2026-04-25 12:38 50.29696 5.16295 28560 ft 455 kts 234°
2026-04-25 12:39 50.27665 5.12498 28981 ft 454 kts 234°
2026-04-25 12:39 50.25644 5.08726 29428 ft 452 kts 234°
2026-04-25 12:39 50.23627 5.04961 29848 ft 450 kts 234°
2026-04-25 12:39 50.21625 5.01222 30342 ft 447 kts 234°
2026-04-25 12:40 50.19629 4.97503 30731 ft 445 kts 233°
2026-04-25 12:40 50.17643 4.93809 31110 ft 444 kts 233°
2026-04-25 12:40 50.15661 4.90135 31470 ft 442 kts 233°
2026-04-25 12:40 50.13678 4.86468 31822 ft 441 kts 233°
2026-04-25 12:41 50.11701 4.82813 32170 ft 440 kts 233°
2026-04-25 12:41 50.09730 4.79180 32538 ft 439 kts 233°
2026-04-25 12:41 50.07763 4.75551 32883 ft 438 kts 233°
2026-04-25 12:41 50.05802 4.71932 33234 ft 437 kts 233°
2026-04-25 12:42 50.03845 4.68323 33566 ft 436 kts 233°
2026-04-25 12:42 50.02550 4.65939 33792 ft 435 kts 233°
2026-04-25 12:42 49.99940 4.61137 34248 ft 434 kts 233°
2026-04-25 12:42 49.98010 4.57541 34537 ft 432 kts 236°
2026-04-25 12:43 49.96368 4.53669 34804 ft 428 kts 242°
2026-04-25 12:43 49.94876 4.49678 35107 ft 426 kts 242°
2026-04-25 12:43 49.91915 4.41727 35666 ft 425 kts 242°
2026-04-25 12:44 49.90434 4.37766 35911 ft 424 kts 242°
2026-04-25 12:44 49.88949 4.33810 36152 ft 424 kts 242°
2026-04-25 12:44 49.85967 4.25927 36599 ft 424 kts 242°
2026-04-25 12:45 49.84470 4.21995 36827 ft 423 kts 242°
2026-04-25 12:45 49.82973 4.18063 37038 ft 423 kts 242°
2026-04-25 12:45 49.80003 4.10233 37181 ft 426 kts 242°
2026-04-25 12:46 49.76997 4.02320 37179 ft 427 kts 242°
2026-04-25 12:46 49.73983 3.94408 37182 ft 427 kts 242°
2026-04-25 12:47 49.70961 3.86509 37182 ft 427 kts 241°
2026-04-25 12:47 49.67933 3.78614 37167 ft 427 kts 241°
2026-04-25 12:48 49.64892 3.70724 37171 ft 428 kts 241°
2026-04-25 12:48 49.61840 3.62837 37174 ft 428 kts 241°
2026-04-25 12:49 49.58786 3.54949 37177 ft 428 kts 240°
2026-04-25 12:49 49.55726 3.47078 37188 ft 428 kts 240°
2026-04-25 12:50 49.52656 3.39221 37186 ft 428 kts 240°
2026-04-25 12:50 49.49589 3.31368 37187 ft 428 kts 240°
2026-04-25 12:51 49.46520 3.23532 37178 ft 428 kts 240°
2026-04-25 12:51 49.43441 3.15701 37185 ft 428 kts 240°
2026-04-25 12:52 49.40383 3.07920 37182 ft 428 kts 240°
2026-04-25 12:52 49.37293 3.00123 37187 ft 428 kts 239°
2026-04-25 12:53 49.34198 2.92322 37188 ft 428 kts 239°
2026-04-25 12:53 49.31105 2.84541 37189 ft 428 kts 239°
2026-04-25 12:54 49.28051 2.76902 37187 ft 428 kts 239°
2026-04-25 12:54 49.24896 2.69034 37183 ft 428 kts 239°
2026-04-25 12:55 49.22307 2.62585 37192 ft 428 kts 239°
2026-04-25 12:55 49.18666 2.53518 37188 ft 428 kts 239°
2026-04-25 12:56 49.15540 2.45776 37188 ft 428 kts 239°
2026-04-25 12:56 49.12989 2.37621 37188 ft 427 kts 254°
2026-04-25 12:57 49.11967 2.28707 37183 ft 427 kts 261°
2026-04-25 12:57 49.11143 2.19737 37181 ft 427 kts 261°
2026-04-25 12:58 49.10383 2.11721 37182 ft 427 kts 261°
2026-04-25 12:59 49.10006 2.07791 37180 ft 427 kts 260°
2026-04-25 13:00 49.08686 2.00514 37177 ft 425 kts 246°
2026-04-25 13:00 49.05812 1.91008 37161 ft 425 kts 245°
2026-04-25 13:01 49.03347 1.82820 37163 ft 425 kts 245°
2026-04-25 13:01 49.00880 1.74623 37174 ft 425 kts 245°
2026-04-25 13:02 48.98414 1.66440 37175 ft 425 kts 245°
2026-04-25 13:02 48.95931 1.58279 37176 ft 425 kts 244°
2026-04-25 13:03 48.93432 1.50125 37175 ft 425 kts 244°
2026-04-25 13:03 48.90930 1.41982 37175 ft 425 kts 244°
2026-04-25 13:04 48.88431 1.33840 37174 ft 425 kts 244°
2026-04-25 13:04 48.85922 1.25710 37180 ft 425 kts 244°
2026-04-25 13:05 48.83413 1.17587 37181 ft 425 kts 244°
2026-04-25 13:05 48.80900 1.09475 37180 ft 425 kts 244°
2026-04-25 13:06 48.78370 1.01384 37183 ft 425 kts 244°
2026-04-25 13:06 48.75840 0.93291 37181 ft 425 kts 244°
2026-04-25 13:07 48.73055 0.85419 37184 ft 424 kts 238°
2026-04-25 13:07 48.69972 0.77802 37181 ft 424 kts 238°
2026-04-25 13:08 48.66893 0.70190 37177 ft 424 kts 238°
2026-04-25 13:08 48.64332 0.63870 37169 ft 424 kts 238°
2026-04-25 13:09 48.60709 0.54986 37170 ft 425 kts 238°
2026-04-25 13:09 48.57606 0.47391 37166 ft 425 kts 238°
2026-04-25 13:10 48.54493 0.39807 37175 ft 425 kts 238°
2026-04-25 13:10 48.51379 0.32241 37176 ft 424 kts 238°
2026-04-25 13:11 48.48261 0.24684 37175 ft 424 kts 238°
2026-04-25 13:11 48.45142 0.17139 37177 ft 424 kts 238°
2026-04-25 13:12 48.42018 0.09599 37169 ft 424 kts 238°
2026-04-25 13:12 48.39420 0.03331 37167 ft 424 kts 237°
2026-04-25 13:13 48.35755 -0.05393 37173 ft 425 kts 236°
2026-04-25 13:13 48.32311 -0.12608 37170 ft 425 kts 233°
2026-04-25 13:14 48.28699 -0.19630 37168 ft 425 kts 232°
2026-04-25 13:14 48.25108 -0.26677 37165 ft 425 kts 233°
2026-04-25 13:15 48.21531 -0.33732 37149 ft 425 kts 233°
2026-04-25 13:15 48.17940 -0.40766 37146 ft 425 kts 232°
2026-04-25 13:16 48.14339 -0.47783 37145 ft 425 kts 232°
2026-04-25 13:16 48.10739 -0.54778 37146 ft 425 kts 232°
2026-04-25 13:17 48.07124 -0.61796 37146 ft 425 kts 232°
2026-04-25 13:17 48.03512 -0.68792 37144 ft 425 kts 232°
2026-04-25 13:18 47.99894 -0.75782 37142 ft 425 kts 232°
2026-04-25 13:18 47.96281 -0.82764 37146 ft 425 kts 232°
2026-04-25 13:19 47.92656 -0.89732 37147 ft 425 kts 232°
2026-04-25 13:19 47.90248 -0.94342 37152 ft 426 kts 232°
2026-04-25 13:20 47.85384 -1.03661 37152 ft 426 kts 232°
2026-04-25 13:20 47.81751 -1.10573 37153 ft 427 kts 232°
2026-04-25 13:21 47.78442 -1.16865 37140 ft 427 kts 232°
2026-04-25 13:21 47.74807 -1.23771 37145 ft 427 kts 232°
2026-04-25 13:22 47.71739 -1.29586 37149 ft 427 kts 232°
2026-04-25 13:23 47.65633 -1.41114 37138 ft 427 kts 232°
2026-04-25 13:23 47.61951 -1.48044 37136 ft 428 kts 232°
2026-04-25 13:24 47.60106 -1.51506 37135 ft 428 kts 231°
2026-04-25 13:24 47.54230 -1.61461 37127 ft 428 kts 227°
2026-04-25 13:25 47.50180 -1.67933 37128 ft 429 kts 228°
2026-04-25 13:25 47.46805 -1.73393 37117 ft 430 kts 229°
2026-04-25 13:26 47.42792 -1.79962 37116 ft 431 kts 229°
2026-04-25 13:26 47.42140 -1.81031 37116 ft 431 kts 229°
2026-04-25 13:27 47.29401 -1.97808 37129 ft 434 kts 212°
2026-04-25 13:28 47.24231 -2.02423 37128 ft 435 kts 212°
2026-04-25 13:28 47.19062 -2.07042 37129 ft 435 kts 213°